HIMAWARI-8              
1 40267U 14060A   19260.50903413 -.00000280  00000-0  00000+0 0  9993
2 40267   0.0418 220.0120 0001081 324.3429 135.7254  1.00273270 18141
H-2A R/B                
1 40268U 14060B   19259.62768934  .00011828  00000-0  18898-2 0  9998
2 40268  22.5107  83.2425 7052626  94.7272 341.8947  2.58477945 44513